Private Wetterstation Wechselburg
Wetterdaten: Donnerstag, 07.01.2010
Datum Zeit Temp. +2m Bodentemp. Temp.+5cm Temp. Wind Windchill X Diff Temp. Feuchte +2m Feuchte +5cm Sonnenschein Luftdruck Regen Wind Richtung Richtung Sonnenschein UV Taupunkt Windchill Windben
07.01.2010 00:00 -6,1 C 2,1 C -6,7 C -7,1 C -9,1 C 0,0 C 84 % 92 % 0 % 1006,0 hPa 0,0 l/m 3,4 km/h (1 Bft) NO 45 0 min 0,0 UV-I -8,4 C -9,1 C 3,5 km/h (1 Bft)
07.01.2010 00:10 -6,1 C 2,1 C -6,8 C -7,1 C -9,1 C 0,0 C 84 % 92 % 0 % 1006,0 hPa 0,0 l/m 3,2 km/h (1 Bft) NO 45 0 min 0,0 UV-I -8,4 C -9,1 C 6,8 km/h (2 Bft)
07.01.2010 00:15 -6,1 C 2,1 C -6,8 C -7,2 C -9,4 C 0,0 C 84 % 92 % 0 % 1006,0 hPa 0,0 l/m 3,7 km/h (1 Bft) NO 45 0 min 0,0 UV-I -8,4 C -9,4 C 7,1 km/h (2 Bft)
07.01.2010 00:20 -6,1 C 2,1 C -6,8 C -7,2 C -9,3 C 0,0 C 84 % 92 % 0 % 1006,0 hPa 0,0 l/m 3,5 km/h (1 Bft) NO 45 0 min 0,0 UV-I -8,4 C -9,3 C 4,5 km/h (1 Bft)
07.01.2010 00:25 -6,2 C 2,1 C -6,8 C -7,1 C -9,0 C 0,0 C 84 % 92 % 0 % 1006,0 hPa 0,0 l/m 3,1 km/h (1 Bft) NO 45 0 min 0,0 UV-I -8,4 C -9,0 C 2,9 km/h (1 Bft)
07.01.2010 00:30 -6,2 C 2,1 C -6,8 C -7,2 C -9,1 C 0,0 C 84 % 92 % 0 % 1006,0 hPa 0,0 l/m 3,2 km/h (1 Bft) NO 45 0 min 0,0 UV-I -8,4 C -9,1 C 5,8 km/h (2 Bft)
07.01.2010 00:35 -6,1 C 2,1 C -6,8 C -7,0 C -8,7 C 0,0 C 84 % 92 % 0 % 1005,7 hPa 0,0 l/m 2,7 km/h (1 Bft) NO 45 0 min 0,0 UV-I -8,4 C -8,7 C 4,7 km/h (1 Bft)
07.01.2010 00:40 -6,1 C 2,1 C -6,8 C -7,1 C -9,0 C 0,0 C 84 % 92 % 0 % 1005,7 hPa 0,0 l/m 3,1 km/h (1 Bft) NO 45 0 min 0,0 UV-I -8,4 C -9,0 C 4,0 km/h (1 Bft)
07.01.2010 00:45 -6,2 C 2,0 C -6,8 C -7,4 C -9,9 C 0,0 C 84 % 92 % 0 % 1005,7 hPa 0,0 l/m 4,5 km/h (1 Bft) NO 45 0 min 0,0 UV-I -8,4 C -9,9 C 8,4 km/h (2 Bft)
07.01.2010 00:50 -6,2 C 2,0 C -6,8 C -7,6 C -10,3 C 0,0 C 84 % 92 % 0 % 1005,7 hPa 0,0 l/m 5,1 km/h (1 Bft) NO 45 0 min 0,0 UV-I -8,4 C -13,3 C 9,8 km/h (2 Bft)
07.01.2010 00:55 -6,1 C 2,0 C -6,7 C -7,5 C -10,2 C 0,0 C 83 % 91 % 0 % 1005,4 hPa 0,0 l/m 5,1 km/h (1 Bft) NO 45 0 min 0,0 UV-I -8,5 C -13,2 C 5,3 km/h (1 Bft)
07.01.2010 01:00 -6,1 C 2,0 C -6,7 C -7,5 C -10,2 C 0,0 C 83 % 91 % 0 % 1005,4 hPa 0,0 l/m 5,1 km/h (1 Bft) NO 45 0 min 0,0 UV-I -8,5 C -13,2 C 6,0 km/h (2 Bft)
07.01.2010 01:10 -6,1 C 2,0 C -6,7 C -7,4 C -10,0 C 0,0 C 83 % 91 % 0 % 1005,4 hPa 0,0 l/m 4,8 km/h (1 Bft) NO 45 0 min 0,0 UV-I -8,5 C -12,8 C 11,3 km/h (2 Bft)
07.01.2010 01:15 -6,1 C 2,0 C -6,7 C -7,3 C -9,8 C 0,0 C 82 % 91 % 0 % 1005,9 hPa 0,0 l/m 4,5 km/h (1 Bft) NO 45 0 min 0,0 UV-I -8,7 C -9,8 C 1,9 km/h (1 Bft)
07.01.2010 01:20 -6,1 C 2,0 C -6,5 C -7,2 C -9,3 C 0,0 C 83 % 91 % 0 % 1005,9 hPa 0,0 l/m 3,9 km/h (1 Bft) NO 45 0 min 0,0 UV-I -8,5 C -9,3 C 2,3 km/h (1 Bft)
07.01.2010 01:25 -6,3 C 2,0 C -6,6 C -6,7 C -7,5 C 0,0 C 82 % 90 % 0 % 1005,9 hPa 0,0 l/m 1,9 km/h (1 Bft) NO 45 0 min 0,0 UV-I -8,9 C -7,5 C 6,8 km/h (2 Bft)
07.01.2010 01:30 -6,3 C 2,0 C -6,5 C -7,0 C -8,3 C 0,0 C 83 % 90 % 0 % 1005,9 hPa 0,0 l/m 2,6 km/h (1 Bft) NO 45 0 min 0,0 UV-I -8,7 C -8,3 C 7,9 km/h (2 Bft)
07.01.2010 01:35 -6,1 C 2,0 C -6,6 C -6,9 C -8,6 C 0,0 C 83 % 90 % 0 % 1006,4 hPa 0,0 l/m 2,9 km/h (1 Bft) NO 45 0 min 0,0 UV-I -8,5 C -8,6 C 2,9 km/h (1 Bft)
07.01.2010 01:40 -6,3 C 2,0 C -6,6 C -7,0 C -8,3 C 0,0 C 83 % 91 % 0 % 1006,4 hPa 0,0 l/m 2,6 km/h (1 Bft) NO 45 0 min 0,0 UV-I -8,7 C -8,3 C 3,9 km/h (1 Bft)
07.01.2010 01:45 -6,3 C 2,0 C -6,6 C -7,1 C -8,8 C 0,0 C 83 % 91 % 0 % 1006,4 hPa 0,0 l/m 3,2 km/h (1 Bft) NO 45 0 min 0,0 UV-I -8,7 C -8,8 C 4,2 km/h (1 Bft)
07.01.2010 01:50 -6,3 C 2,0 C -6,5 C -7,3 C -9,2 C 0,0 C 84 % 91 % 0 % 1006,4 hPa 0,0 l/m 3,7 km/h (1 Bft) NO 45 0 min 0,0 UV-I -8,5 C -9,2 C 5,6 km/h (1 Bft)
07.01.2010 01:55 -6,3 C 2,0 C -6,5 C -7,4 C -9,6 C 0,0 C 84 % 91 % 0 % 1006,0 hPa 0,0 l/m 4,2 km/h (1 Bft) NO 45 0 min 0,0 UV-I -8,5 C -9,6 C 4,0 km/h (1 Bft)
07.01.2010 02:00 -6,1 C 2,0 C -6,5 C -7,4 C -9,9 C 0,0 C 84 % 91 % 0 % 1006,0 hPa 0,0 l/m 4,7 km/h (1 Bft) NO 45 0 min 0,0 UV-I -8,4 C -12,6 C 10,1 km/h (2 Bft)
07.01.2010 02:10 -6,1 C 2,0 C -6,7 C -7,3 C -9,7 C 0,0 C 84 % 91 % 0 % 1006,0 hPa 0,0 l/m 4,3 km/h (1 Bft) NO 45 0 min 0,0 UV-I -8,4 C -9,7 C 4,3 km/h (1 Bft)
07.01.2010 02:15 -6,1 C 2,0 C -6,7 C -7,5 C -10,4 C 0,0 C 84 % 91 % 0 % 1006,6 hPa 0,0 l/m 5,5 km/h (1 Bft) NO 45 0 min 0,0 UV-I -8,4 C -13,7 C 11,9 km/h (2 Bft)
07.01.2010 02:20 -6,3 C 2,0 C -6,8 C -7,8 C -10,9 C 0,0 C 83 % 91 % 0 % 1006,6 hPa 0,0 l/m 6,6 km/h (2 Bft) NO 45 0 min 0,0 UV-I -8,7 C -14,9 C 6,3 km/h (2 Bft)
07.01.2010 02:25 -6,3 C 2,0 C -6,8 C -7,9 C -11,1 C 0,0 C 83 % 91 % 0 % 1006,6 hPa 0,0 l/m 6,6 km/h (2 Bft) NO 45 0 min 0,0 UV-I -8,7 C -15,1 C 8,4 km/h (2 Bft)
07.01.2010 02:30 -6,3 C 2,0 C -6,7 C -7,7 C -10,4 C 0,0 C 83 % 91 % 0 % 1006,6 hPa 0,0 l/m 5,3 km/h (1 Bft) NO 45 0 min 0,0 UV-I -8,7 C -13,6 C 4,0 km/h (1 Bft)
07.01.2010 02:35 -6,4 C 2,0 C -6,7 C -7,7 C -10,2 C 0,0 C 83 % 90 % 0 % 1007,2 hPa 0,0 l/m 5,0 km/h (1 Bft) NO 45 0 min 0,0 UV-I -8,8 C -13,2 C 7,2 km/h (2 Bft)
07.01.2010 02:40 -6,4 C 2,0 C -6,7 C -7,7 C -10,2 C 0,0 C 83 % 90 % 0 % 1007,2 hPa 0,0 l/m 5,0 km/h (1 Bft) NO 45 0 min 0,0 UV-I -8,8 C -13,2 C 3,2 km/h (1 Bft)
07.01.2010 02:45 -6,4 C 2,0 C -6,8 C -7,6 C -10,1 C 0,0 C 83 % 90 % 0 % 1007,2 hPa 0,0 l/m 4,7 km/h (1 Bft) NO 45 0 min 0,0 UV-I -8,8 C -12,9 C 6,4 km/h (2 Bft)
07.01.2010 02:50 -6,4 C 2,0 C -6,8 C -7,6 C -10,1 C 0,0 C 83 % 90 % 0 % 1007,2 hPa 0,0 l/m 4,8 km/h (1 Bft) NO 45 0 min 0,0 UV-I -8,8 C -12,9 C 6,0 km/h (2 Bft)
07.01.2010 02:55 -6,4 C 2,0 C -6,8 C -7,5 C -9,8 C 0,0 C 83 % 90 % 0 % 1007,2 hPa 0,0 l/m 4,3 km/h (1 Bft) NO 45 0 min 0,0 UV-I -8,8 C -9,8 C 4,7 km/h (1 Bft)
07.01.2010 03:00 -6,5 C 2,0 C -6,8 C -7,4 C -9,1 C 0,0 C 83 % 90 % 0 % 1007,2 hPa 0,0 l/m 3,4 km/h (1 Bft) NO 45 0 min 0,0 UV-I -8,9 C -9,1 C 7,7 km/h (2 Bft)
07.01.2010 03:10 -6,5 C 2,0 C -6,9 C -7,4 C -9,2 C 0,0 C 82 % 89 % 0 % 1007,2 hPa 0,0 l/m 3,4 km/h (1 Bft) NO 45 0 min 0,0 UV-I -9,0 C -9,2 C 8,5 km/h (2 Bft)
07.01.2010 03:15 -6,5 C 2,0 C -6,9 C -7,3 C -8,9 C 0,0 C 82 % 90 % 0 % 1006,9 hPa 0,0 l/m 2,9 km/h (1 Bft) NO 45 0 min 0,0 UV-I -9,0 C -8,9 C 0,0 km/h (0 Bft)
07.01.2010 03:20 -6,5 C 2,0 C -6,9 C -7,2 C -8,7 C 0,0 C 83 % 89 % 0 % 1006,9 hPa 0,0 l/m 2,7 km/h (1 Bft) NO 45 0 min 0,0 UV-I -8,9 C -8,7 C 4,3 km/h (1 Bft)
07.01.2010 03:25 -6,5 C 2,0 C -6,9 C -6,9 C -7,8 C 0,0 C 83 % 89 % 0 % 1006,9 hPa 0,0 l/m 1,6 km/h (1 Bft) NO 45 0 min 0,0 UV-I -8,9 C -7,8 C 2,7 km/h (1 Bft)
07.01.2010 03:30 -6,5 C 2,0 C -6,9 C -6,9 C -7,8 C 0,0 C 83 % 89 % 0 % 1006,9 hPa 0,0 l/m 1,8 km/h (1 Bft) NO 45 0 min 0,0 UV-I -8,9 C -7,8 C 2,3 km/h (1 Bft)
07.01.2010 03:35 -6,5 C 2,0 C -6,9 C -6,9 C -7,8 C 0,0 C 83 % 89 % 0 % 1007,0 hPa 0,0 l/m 1,1 km/h (1 Bft) NO 45 0 min 0,0 UV-I -8,9 C -7,8 C 3,1 km/h (1 Bft)
07.01.2010 03:40 -6,7 C 2,0 C -6,9 C -7,1 C -7,9 C 0,0 C 83 % 89 % 0 % 1007,0 hPa 0,0 l/m 0,6 km/h (0 Bft) NO 45 0 min 0,0 UV-I -9,1 C -7,9 C 0,0 km/h (0 Bft)
07.01.2010 03:45 -6,5 C 2,0 C -7,0 C -7,0 C -7,9 C 0,0 C 83 % 89 % 0 % 1007,0 hPa 0,0 l/m 0,5 km/h (0 Bft) NO 45 0 min 0,0 UV-I -8,9 C -7,9 C 1,9 km/h (1 Bft)
07.01.2010 03:50 -6,7 C 2,0 C -6,9 C -7,1 C -7,9 C 0,0 C 83 % 89 % 0 % 1007,0 hPa 0,0 l/m 0,8 km/h (0 Bft) NO 45 0 min 0,0 UV-I -9,1 C -7,9 C 2,3 km/h (1 Bft)
07.01.2010 03:55 -6,7 C 2,0 C -6,9 C -7,1 C -7,9 C 0,0 C 83 % 89 % 0 % 1006,7 hPa 0,0 l/m 1,0 km/h (0 Bft) NO 45 0 min 0,0 UV-I -9,1 C -7,9 C 0,0 km/h (0 Bft)
07.01.2010 04:00 -6,7 C 2,0 C -6,9 C -7,1 C -7,9 C 0,0 C 83 % 90 % 0 % 1006,7 hPa 0,0 l/m 0,8 km/h (0 Bft) NO 45 0 min 0,0 UV-I -9,1 C -7,9 C 3,2 km/h (1 Bft)
07.01.2010 04:10 -6,5 C 2,0 C -6,9 C -7,3 C -8,8 C 0,0 C 84 % 90 % 0 % 1006,7 hPa 0,0 l/m 2,7 km/h (1 Bft) NO 45 0 min 0,0 UV-I -8,7 C -8,8 C 2,1 km/h (1 Bft)
07.01.2010 04:15 -6,5 C 2,0 C -6,9 C -6,9 C -7,8 C 0,0 C 83 % 90 % 0 % 1007,1 hPa 0,0 l/m 1,9 km/h (1 Bft) NO 45 0 min 0,0 UV-I -8,9 C -7,8 C 0,0 km/h (0 Bft)
07.01.2010 04:20 -6,7 C 2,0 C -6,9 C -7,1 C -7,8 C 0,0 C 84 % 90 % 0 % 1007,1 hPa 0,0 l/m 1,1 km/h (1 Bft) NO 45 0 min 0,0 UV-I -8,9 C -7,8 C 0,0 km/h (0 Bft)
07.01.2010 04:25 -6,7 C 2,0 C -6,9 C -7,1 C -7,8 C 0,0 C 84 % 90 % 0 % 1007,1 hPa 0,0 l/m 1,8 km/h (1 Bft) NO 45 0 min 0,0 UV-I -8,9 C -7,8 C 2,7 km/h (1 Bft)
07.01.2010 04:30 -6,7 C 2,0 C -6,9 C -7,1 C -8,0 C 0,0 C 84 % 90 % 0 % 1007,1 hPa 0,0 l/m 2,1 km/h (1 Bft) NO 45 0 min 0,0 UV-I -8,9 C -8,0 C 5,6 km/h (1 Bft)
07.01.2010 04:35 -6,7 C 2,0 C -6,9 C -7,3 C -8,6 C 0,0 C 84 % 90 % 0 % 1006,7 hPa 0,0 l/m 2,6 km/h (1 Bft) NO 45 0 min 0,0 UV-I -8,9 C -8,6 C 1,9 km/h (1 Bft)
07.01.2010 04:40 -6,7 C 2,0 C -6,9 C -7,5 C -9,1 C 0,0 C 84 % 90 % 0 % 1006,7 hPa 0,0 l/m 3,1 km/h (1 Bft) NO 45 0 min 0,0 UV-I -8,9 C -9,1 C 4,8 km/h (1 Bft)
07.01.2010 04:45 -6,5 C 2,0 C -6,9 C -7,2 C -8,7 C 0,0 C 84 % 90 % 0 % 1006,7 hPa 0,0 l/m 2,7 km/h (1 Bft) NO 45 0 min 0,0 UV-I -8,7 C -8,7 C 0,0 km/h (0 Bft)
07.01.2010 04:50 -6,5 C 2,0 C -6,9 C -7,2 C -8,7 C 0,0 C 84 % 90 % 0 % 1006,7 hPa 0,0 l/m 2,7 km/h (1 Bft) NO 45 0 min 0,0 UV-I -8,7 C -8,7 C 4,0 km/h (1 Bft)
07.01.2010 04:55 -6,5 C 2,0 C -6,9 C -7,0 C -8,0 C 0,0 C 84 % 91 % 0 % 1007,0 hPa 0,0 l/m 2,1 km/h (1 Bft) NO 45 0 min 0,0 UV-I -8,7 C -8,0 C 3,1 km/h (1 Bft)
07.01.2010 05:00 -6,5 C 2,0 C -6,9 C -7,0 C -8,0 C 0,0 C 84 % 91 % 0 % 1007,0 hPa 0,0 l/m 2,1 km/h (1 Bft) NO 45 0 min 0,0 UV-I -8,7 C -8,0 C 0,0 km/h (0 Bft)
07.01.2010 05:10 -6,5 C 2,0 C -6,7 C -6,9 C -7,8 C 0,0 C 84 % 91 % 0 % 1007,0 hPa 0,0 l/m 0,6 km/h (0 Bft) NO 45 0 min 0,0 UV-I -8,7 C -7,8 C 2,3 km/h (1 Bft)
07.01.2010 05:15 -6,5 C 2,0 C -6,9 C -7,0 C -8,0 C 0,0 C 84 % 90 % 0 % 1006,9 hPa 0,0 l/m 2,1 km/h (1 Bft) NO 45 0 min 0,0 UV-I -8,7 C -8,0 C 4,0 km/h (1 Bft)
07.01.2010 05:20 -6,5 C 2,0 C -6,9 C -7,4 C -9,2 C 0,0 C 84 % 90 % 0 % 1006,9 hPa 0,0 l/m 3,2 km/h (1 Bft) NO 45 0 min 0,0 UV-I -8,7 C -9,2 C 6,9 km/h (2 Bft)
07.01.2010 05:25 -6,5 C 2,0 C -6,9 C -7,5 C -9,4 C 0,0 C 83 % 90 % 0 % 1006,9 hPa 0,0 l/m 3,4 km/h (1 Bft) NO 45 0 min 0,0 UV-I -8,9 C -9,4 C 3,1 km/h (1 Bft)
07.01.2010 05:30 -6,5 C 2,0 C -7,0 C -7,3 C -9,0 C 0,0 C 83 % 91 % 0 % 1006,9 hPa 0,0 l/m 2,9 km/h (1 Bft) NO 45 0 min 0,0 UV-I -8,9 C -9,0 C 5,3 km/h (1 Bft)
07.01.2010 05:35 -6,5 C 2,0 C -6,9 C -7,3 C -8,8 C 0,0 C 83 % 91 % 0 % 1007,4 hPa 0,0 l/m 2,7 km/h (1 Bft) NO 45 0 min 0,0 UV-I -8,9 C -8,8 C 2,6 km/h (1 Bft)
07.01.2010 05:40 -6,5 C 2,0 C -6,9 C -7,3 C -8,8 C 0,0 C 83 % 91 % 0 % 1007,4 hPa 0,0 l/m 2,7 km/h (1 Bft) NO 45 0 min 0,0 UV-I -8,9 C -8,8 C 1,9 km/h (1 Bft)
07.01.2010 05:45 -6,5 C 2,0 C -6,9 C -7,0 C -8,0 C 0,0 C 83 % 91 % 0 % 1007,4 hPa 0,0 l/m 1,9 km/h (1 Bft) NO 45 0 min 0,0 UV-I -8,9 C -8,0 C 3,1 km/h (1 Bft)
07.01.2010 05:50 -6,5 C 2,0 C -6,9 C -7,0 C -8,0 C 0,0 C 83 % 91 % 0 % 1007,4 hPa 0,0 l/m 1,4 km/h (1 Bft) NO 45 0 min 0,0 UV-I -8,9 C -8,0 C 0,0 km/h (0 Bft)
07.01.2010 05:55 -6,5 C 2,0 C -6,9 C -7,0 C -8,0 C 0,0 C 83 % 91 % 0 % 1006,9 hPa 0,0 l/m 0,8 km/h (0 Bft) NO 45 0 min 0,0 UV-I -8,9 C -8,0 C 1,9 km/h (1 Bft)
07.01.2010 06:00 -6,5 C 1,9 C -6,9 C -7,0 C -8,0 C 0,0 C 83 % 91 % 0 % 1006,9 hPa 0,0 l/m 0,5 km/h (0 Bft) NO 45 0 min 0,0 UV-I -8,9 C -8,0 C 0,0 km/h (0 Bft)
07.01.2010 06:10 -6,7 C 2,0 C -6,9 C -7,1 C -8,0 C 0,0 C 82 % 90 % 0 % 1006,9 hPa 0,0 l/m 0,6 km/h (0 Bft) NO 45 0 min 0,0 UV-I -9,2 C -8,0 C 0,0 km/h (0 Bft)
07.01.2010 06:15 -6,7 C 2,0 C -6,9 C -7,1 C -8,0 C 0,0 C 82 % 90 % 0 % 1006,9 hPa 0,0 l/m 0,3 km/h (0 Bft) NO 45 0 min 0,0 UV-I -9,2 C -8,0 C 0,0 km/h (0 Bft)
07.01.2010 06:20 -6,7 C 2,0 C -6,9 C -7,1 C -8,0 C 0,0 C 83 % 90 % 0 % 1006,9 hPa 0,0 l/m 0,2 km/h (0 Bft) NO 45 0 min 0,0 UV-I -9,1 C -8,0 C 0,0 km/h (0 Bft)
07.01.2010 06:25 -6,7 C 2,0 C -6,9 C -7,1 C -8,0 C 0,0 C 83 % 90 % 0 % 1006,9 hPa 0,0 l/m 0,0 km/h (0 Bft) NO 45 0 min 0,0 UV-I -9,1 C -8,0 C 0,0 km/h (0 Bft)
07.01.2010 06:30 -6,7 C 2,0 C -6,9 C -7,1 C -8,0 C 0,0 C 83 % 90 % 0 % 1006,9 hPa 0,0 l/m 0,0 km/h (0 Bft) NO 45 0 min 0,0 UV-I -9,1 C -8,0 C 0,0 km/h (0 Bft)
07.01.2010 06:35 -6,5 C 2,0 C -6,9 C -7,0 C -8,1 C 0,0 C 83 % 90 % 0 % 1007,3 hPa 0,0 l/m 0,0 km/h (0 Bft) NO 45 0 min 0,0 UV-I -8,9 C -8,1 C 0,0 km/h (0 Bft)
07.01.2010 06:40 -6,7 C 2,0 C -6,9 C -7,2 C -8,1 C 0,0 C 83 % 90 % 0 % 1007,3 hPa 0,0 l/m 0,0 km/h (0 Bft) NO 45 0 min 0,0 UV-I -9,1 C -8,1 C 0,0 km/h (0 Bft)
07.01.2010 06:45 -6,5 C 2,0 C -6,9 C -7,0 C -8,1 C 0,0 C 83 % 90 % 0 % 1007,3 hPa 0,0 l/m 0,3 km/h (0 Bft) NO 45 0 min 0,0 UV-I -8,9 C -8,1 C 0,0 km/h (0 Bft)
07.01.2010 06:50 -6,7 C 1,9 C -6,9 C -7,2 C -8,1 C 0,0 C 83 % 90 % 0 % 1007,3 hPa 0,0 l/m 0,3 km/h (0 Bft) NO 45 0 min 0,0 UV-I -9,1 C -8,1 C 0,0 km/h (0 Bft)
07.01.2010 06:55 -6,7 C 2,0 C -7,1 C -7,2 C -8,3 C 0,0 C 83 % 89 % 0 % 1007,2 hPa 0,0 l/m 0,0 km/h (0 Bft) NO 45 0 min 0,0 UV-I -9,1 C -8,3 C 0,0 km/h (0 Bft)
07.01.2010 07:00 -6,7 C 2,0 C -7,2 C -7,3 C -8,4 C 0,0 C 83 % 90 % 0 % 1007,2 hPa 0,0 l/m 0,0 km/h (0 Bft) NO 45 0 min 0,0 UV-I -9,1 C -8,4 C 0,0 km/h (0 Bft)
07.01.2010 07:05 -6,7 C 2,0 C -7,1 C -7,3 C -8,6 C 0,0 C 83 % 90 % 0 % 1007,2 hPa 0,0 l/m 0,0 km/h (0 Bft) NO 45 0 min 0,0 UV-I -9,1 C -8,6 C 0,0 km/h (0 Bft)
07.01.2010 07:10 -6,9 C 2,0 C -7,3 C -7,5 C -8,7 C 0,0 C 83 % 90 % 0 % 1007,2 hPa 0,0 l/m 0,0 km/h (0 Bft) NO 45 0 min 0,0 UV-I -9,3 C -8,7 C 0,0 km/h (0 Bft)
07.01.2010 07:15 -6,9 C 2,0 C -7,3 C -7,5 C -8,8 C 0,0 C 83 % 90 % 0 % 1007,7 hPa 0,0 l/m 0,0 km/h (0 Bft) NO 45 0 min 0,0 UV-I -9,3 C -8,8 C 0,0 km/h (0 Bft)
07.01.2010 07:20 -6,9 C 2,0 C -7,5 C -7,6 C -9,0 C 0,0 C 83 % 90 % 0 % 1007,7 hPa 0,0 l/m 0,0 km/h (0 Bft) NO 45 0 min 0,0 UV-I -9,3 C -9,0 C 0,0 km/h (0 Bft)
07.01.2010 07:25 -6,9 C 2,0 C -7,6 C -7,6 C -9,1 C 0,0 C 83 % 90 % 0 % 1007,7 hPa 0,0 l/m 0,0 km/h (0 Bft) NO 45 0 min 0,0 UV-I -9,3 C -9,1 C 0,0 km/h (0 Bft)
07.01.2010 07:30 -6,9 C 2,1 C -7,7 C -7,6 C -9,1 C 0,0 C 83 % 90 % 0 % 1007,7 hPa 0,0 l/m 0,0 km/h (0 Bft) NO 45 0 min 0,0 UV-I -9,3 C -9,1 C 0,0 km/h (0 Bft)
07.01.2010 07:35 -6,9 C 2,0 C -7,7 C -7,7 C -9,3 C 0,0 C 83 % 90 % 0 % 1007,2 hPa 0,0 l/m 0,0 km/h (0 Bft) NO 45 0 min 0,0 UV-I -9,3 C -9,3 C 0,0 km/h (0 Bft)
07.01.2010 07:40 -7,1 C 2,0 C -7,8 C -7,9 C -9,4 C 0,0 C 83 % 90 % 0 % 1007,2 hPa 0,0 l/m 0,0 km/h (0 Bft) NO 45 0 min 0,0 UV-I -9,5 C -9,4 C 0,0 km/h (0 Bft)
07.01.2010 07:45 -7,1 C 2,0 C -7,7 C -7,9 C -9,4 C 0,0 C 83 % 90 % 0 % 1007,2 hPa 0,0 l/m 0,0 km/h (0 Bft) NO 45 0 min 0,0 UV-I -9,5 C -9,4 C 0,0 km/h (0 Bft)
07.01.2010 07:50 -7,2 C 2,0 C -7,7 C -7,9 C -9,4 C 0,0 C 83 % 90 % 0 % 1007,2 hPa 0,0 l/m 0,0 km/h (0 Bft) NO 45 0 min 0,0 UV-I -9,6 C -9,4 C 0,0 km/h (0 Bft)
07.01.2010 07:55 -7,2 C 2,0 C -7,7 C -7,9 C -9,3 C 0,0 C 83 % 91 % 0 % 1007,4 hPa 0,0 l/m 0,0 km/h (0 Bft) NO 45 0 min 0,0 UV-I -9,6 C -9,3 C 0,0 km/h (0 Bft)
07.01.2010 08:00 -7,1 C 2,0 C -7,7 C -7,8 C -9,3 C 0,0 C 84 % 91 % 0 % 1007,4 hPa 0,0 l/m 0,0 km/h (0 Bft) NO 45 0 min 0,0 UV-I -9,3 C -9,3 C 0,0 km/h (0 Bft)
07.01.2010 08:10 -7,3 C 2,0 C -7,7 C -8,0 C -9,3 C 0,0 C 83 % 91 % 0 % 1007,4 hPa 0,0 l/m 0,2 km/h (0 Bft) NO 45 0 min 0,0 UV-I -9,7 C -9,3 C 0,0 km/h (0 Bft)
07.01.2010 08:15 -7,2 C 2,0 C -7,9 C -7,9 C -9,2 C 0,0 C 84 % 91 % 0 % 1008,6 hPa 0,0 l/m 0,2 km/h (0 Bft) NO 45 0 min 0,0 UV-I -9,4 C -9,2 C 0,0 km/h (0 Bft)
07.01.2010 08:20 -7,3 C 2,0 C -7,9 C -7,9 C -9,2 C 0,0 C 84 % 90 % 0 % 1008,6 hPa 0,0 l/m 0,2 km/h (0 Bft) NO 45 0 min 0,0 UV-I -9,5 C -9,2 C 0,0 km/h (0 Bft)
07.01.2010 08:25 -7,3 C 2,0 C -7,9 C -7,9 C -9,1 C 0,0 C 84 % 90 % 0 % 1008,6 hPa 0,0 l/m 0,2 km/h (0 Bft) NO 45 0 min 0,0 UV-I -9,5 C -9,1 C 1,8 km/h (1 Bft)
07.01.2010 08:30 -7,3 C 2,0 C -7,7 C -7,9 C -9,1 C 0,0 C 84 % 91 % 0 % 1008,6 hPa 0,0 l/m 0,2 km/h (0 Bft) NO 45 0 min 0,0 UV-I -9,5 C -9,1 C 2,3 km/h (1 Bft)
07.01.2010 08:35 -7,3 C 2,0 C -7,7 C -7,9 C -9,0 C 0,0 C 84 % 91 % 0 % 1008,6 hPa 0,0 l/m 0,5 km/h (0 Bft) NO 45 0 min 0,0 UV-I -9,5 C -9,0 C 0,0 km/h (0 Bft)
07.01.2010 08:40 -7,1 C 2,0 C -7,7 C -7,7 C -9,0 C 0,0 C 84 % 91 % 0 % 1008,6 hPa 0,0 l/m 0,5 km/h (0 Bft) NO 45 0 min 0,0 UV-I -9,3 C -9,0 C 1,9 km/h (1 Bft)
07.01.2010 08:45 -7,2 C 2,0 C -7,7 C -7,8 C -8,9 C 0,0 C 84 % 91 % 0 % 1008,6 hPa 0,0 l/m 0,8 km/h (0 Bft) NO 45 0 min 0,0 UV-I -9,4 C -8,9 C 2,7 km/h (1 Bft)
07.01.2010 08:50 -7,1 C 2,0 C -7,7 C -7,7 C -8,8 C 0,0 C 84 % 91 % 0 % 1008,6 hPa 0,0 l/m 1,0 km/h (0 Bft) NO 45 0 min 0,0 UV-I -9,3 C -8,8 C 0,0 km/h (0 Bft)
07.01.2010 08:55 -6,9 C 2,0 C -7,7 C -7,5 C -8,7 C 0,0 C 84 % 91 % 0 % 1008,8 hPa 0,0 l/m 0,6 km/h (0 Bft) NO 45 0 min 0,0 UV-I -9,1 C -8,7 C 0,0 km/h (0 Bft)
07.01.2010 09:00 -7,0 C 2,0 C -7,5 C -7,5 C -8,6 C 0,0 C 84 % 90 % 0 % 1008,8 hPa 0,0 l/m 0,3 km/h (0 Bft) NO 45 0 min 0,0 UV-I -9,2 C -8,6 C 0,0 km/h (0 Bft)
07.01.2010 09:10 -6,9 C 1,9 C -7,5 C -7,4 C -8,5 C 0,0 C 83 % 90 % 0 % 1008,8 hPa 0,0 l/m 1,0 km/h (0 Bft) NO 45 0 min 0,0 UV-I -9,3 C -8,5 C 5,6 km/h (1 Bft)
07.01.2010 09:15 -6,7 C 2,0 C -7,3 C -7,3 C -8,4 C 0,0 C 84 % 91 % 0 % 1008,8 hPa 0,0 l/m 1,6 km/h (1 Bft) NO 45 0 min 0,0 UV-I -8,9 C -8,4 C 1,8 km/h (1 Bft)
07.01.2010 09:20 -6,9 C 2,0 C -7,6 C -7,4 C -8,4 C 0,0 C 83 % 90 % 0 % 1008,8 hPa 0,0 l/m 1,4 km/h (1 Bft) NO 45 0 min 0,0 UV-I -9,3 C -8,4 C 0,0 km/h (0 Bft)
07.01.2010 09:25 -6,7 C 2,0 C -7,6 C -7,3 C -8,5 C 0,0 C 84 % 90 % 0 % 1008,8 hPa 0,0 l/m 0,8 km/h (0 Bft) NO 45 0 min 0,0 UV-I -8,9 C -8,5 C 0,0 km/h (0 Bft)
07.01.2010 09:30 -6,7 C 2,0 C -7,6 C -7,3 C -8,5 C 0,0 C 84 % 90 % 0 % 1008,8 hPa 0,0 l/m 0,6 km/h (0 Bft) NO 45 0 min 0,0 UV-I -8,9 C -8,5 C 0,0 km/h (0 Bft)
07.01.2010 09:35 -6,7 C 2,0 C -7,5 C -7,3 C -8,4 C 0,0 C 83 % 90 % 0 % 1009,1 hPa 0,0 l/m 0,3 km/h (0 Bft) NO 45 0 min 0,0 UV-I -9,1 C -8,4 C 0,0 km/h (0 Bft)
07.01.2010 09:40 -6,5 C 2,0 C -7,3 C -7,1 C -8,3 C 0,0 C 83 % 90 % 0 % 1009,1 hPa 0,0 l/m 0,0 km/h (0 Bft) NO 45 0 min 0,0 UV-I -8,9 C -8,3 C 0,0 km/h (0 Bft)
07.01.2010 09:45 -6,5 C 2,0 C -7,3 C -7,1 C -8,2 C 0,0 C 83 % 90 % 0 % 1009,1 hPa 0,0 l/m 0,2 km/h (0 Bft) NO 45 0 min 0,0 UV-I -8,9 C -8,2 C 1,6 km/h (1 Bft)
07.01.2010 09:50 -6,5 C 2,0 C -7,3 C -7,1 C -8,2 C 0,0 C 83 % 90 % 0 % 1009,1 hPa 0,0 l/m 0,2 km/h (0 Bft) NO 45 0 min 0,0 UV-I -8,9 C -8,2 C 0,0 km/h (0 Bft)
07.01.2010 09:55 -6,5 C 2,0 C -7,4 C -7,1 C -8,2 C 0,0 C 83 % 90 % 0 % 1009,1 hPa 0,0 l/m 0,2 km/h (0 Bft) NO 45 0 min 0,0 UV-I -8,9 C -8,2 C 0,0 km/h (0 Bft)
07.01.2010 10:00 -6,5 C 2,0 C -7,3 C -7,1 C -8,3 C 0,0 C 83 % 90 % 0 % 1009,1 hPa 0,0 l/m 0,3 km/h (0 Bft) NO 45 0 min 0,0 UV-I -8,9 C -8,3 C 1,8 km/h (1 Bft)
07.01.2010 10:10 -6,5 C 2,0 C -7,6 C -7,2 C -8,6 C 0,0 C 83 % 89 % 0 % 1009,1 hPa 0,0 l/m 0,5 km/h (0 Bft) NO 45 0 min 0,0 UV-I -8,9 C -8,6 C 0,0 km/h (0 Bft)
07.01.2010 10:15 -6,5 C 2,0 C -7,7 C -7,2 C -8,7 C 0,0 C 83 % 89 % 0 % 1010,0 hPa 0,0 l/m 0,3 km/h (0 Bft) NO 45 0 min 0,0 UV-I -8,9 C -8,7 C 0,0 km/h (0 Bft)
07.01.2010 10:20 -6,5 C 1,9 C -7,7 C -7,2 C -8,6 C 0,0 C 83 % 89 % 0 % 1010,0 hPa 0,0 l/m 0,3 km/h (0 Bft) NO 45 0 min 0,0 UV-I -8,9 C -8,6 C 0,0 km/h (0 Bft)
07.01.2010 10:25 -6,4 C 2,0 C -7,5 C -7,1 C -8,4 C 0,0 C 83 % 89 % 0 % 1010,0 hPa 0,0 l/m 0,5 km/h (0 Bft) NO 45 0 min 0,0 UV-I -8,8 C -8,4 C 0,0 km/h (0 Bft)
07.01.2010 10:30 -6,1 C 2,0 C -7,3 C -6,8 C -8,1 C 0,0 C 82 % 89 % 0 % 1010,0 hPa 0,0 l/m 0,6 km/h (0 Bft) NO 45 0 min 0,0 UV-I -8,7 C -8,1 C 1,6 km/h (1 Bft)
07.01.2010 10:35 -6,0 C 2,0 C -7,1 C -6,5 C -7,5 C 0,0 C 82 % 89 % 0 % 1009,9 hPa 0,0 l/m 1,3 km/h (1 Bft) NO 45 0 min 0,0 UV-I -8,6 C -7,5 C 2,9 km/h (1 Bft)
07.01.2010 10:40 -5,8 C 2,0 C -6,9 C -6,2 C -7,1 C 0,0 C 82 % 89 % 0 % 1009,9 hPa 0,0 l/m 1,6 km/h (1 Bft) NO 45 0 min 0,0 UV-I -8,4 C -7,1 C 1,8 km/h (1 Bft)
07.01.2010 10:45 -5,7 C 1,9 C -6,7 C -6,0 C -6,7 C 0,0 C 82 % 89 % 0 % 1009,9 hPa 0,0 l/m 0,8 km/h (0 Bft) NO 45 0 min 0,0 UV-I -8,3 C -6,7 C 1,6 km/h (1 Bft)
07.01.2010 10:50 -5,7 C 1,8 C -6,5 C -6,0 C -6,5 C 0,0 C 82 % 89 % 0 % 1009,9 hPa 0,0 l/m 0,2 km/h (0 Bft) NO 45 0 min 0,0 UV-I -8,3 C -6,5 C 0,0 km/h (0 Bft)
07.01.2010 10:55 -5,5 C 1,8 C -6,4 C -5,7 C -6,1 C 0,0 C 82 % 89 % 0 % 1009,6 hPa 0,0 l/m 0,0 km/h (0 Bft) NO 45 0 min 0,0 UV-I -8,1 C -6,1 C 0,0 km/h (0 Bft)
07.01.2010 11:00 -5,3 C 1,8 C -6,1 C -5,4 C -5,6 C 0,0 C 81 % 89 % 0 % 1009,6 hPa 0,0 l/m 0,2 km/h (0 Bft) NO 45 0 min 0,0 UV-I -8,0 C -5,6 C 1,6 km/h (1 Bft)
07.01.2010 11:10 -5,2 C 1,8 C -5,9 C -5,3 C -5,4 C 0,0 C 81 % 88 % 0 % 1009,6 hPa 0,0 l/m 1,1 km/h (1 Bft) NO 45 0 min 0,0 UV-I -7,9 C -5,4 C 2,7 km/h (1 Bft)
07.01.2010 11:15 -5,1 C 1,9 C -5,7 C -5,2 C -5,4 C 0,0 C 81 % 88 % 0 % 1009,6 hPa 0,0 l/m 1,6 km/h (1 Bft) NO 45 0 min 0,0 UV-I -7,8 C -5,4 C 2,6 km/h (1 Bft)
07.01.2010 11:20 -4,9 C 1,9 C -5,6 C -5,0 C -5,3 C 0,0 C 82 % 88 % 0 % 1009,6 hPa 0,0 l/m 1,1 km/h (1 Bft) NO 45 0 min 0,0 UV-I -7,5 C -5,3 C 2,1 km/h (1 Bft)
07.01.2010 11:25 -4,8 C 1,9 C -5,4 C -4,9 C -5,1 C 0,0 C 82 % 88 % 0 % 1009,6 hPa 0,0 l/m 1,1 km/h (1 Bft) NO 45 0 min 0,0 UV-I -7,4 C -5,1 C 4,5 km/h (1 Bft)
07.01.2010 11:30 -4,7 C 1,9 C -5,3 C -4,8 C -5,0 C 0,0 C 81 % 88 % 0 % 1009,6 hPa 0,0 l/m 1,0 km/h (0 Bft) NO 45 0 min 0,0 UV-I -7,4 C -5,0 C 0,0 km/h (0 Bft)
07.01.2010 11:35 -4,5 C 1,9 C -5,1 C -4,6 C -4,9 C 0,0 C 81 % 88 % 0 % 1010,0 hPa 0,0 l/m 1,3 km/h (1 Bft) NO 45 0 min 0,0 UV-I -7,3 C -4,9 C 2,9 km/h (1 Bft)
07.01.2010 11:40 -4,5 C 1,9 C -5,1 C -4,6 C -4,8 C 0,0 C 81 % 88 % 0 % 1010,0 hPa 0,0 l/m 1,0 km/h (0 Bft) NO 45 0 min 0,0 UV-I -7,3 C -4,8 C 0,0 km/h (0 Bft)
07.01.2010 11:45 -4,5 C 1,9 C -4,9 C -4,5 C -4,6 C 0,0 C 81 % 88 % 0 % 1010,0 hPa 0,0 l/m 1,1 km/h (1 Bft) NO 45 0 min 0,0 UV-I -7,3 C -4,6 C 3,2 km/h (1 Bft)
07.01.2010 11:50 -4,3 C 1,9 C -4,8 C -4,4 C -4,5 C 0,0 C 81 % 89 % 0 % 1010,0 hPa 0,0 l/m 1,1 km/h (1 Bft) NO 45 0 min 0,0 UV-I -7,1 C -4,5 C 0,0 km/h (0 Bft)
07.01.2010 11:55 -4,3 C 1,9 C -4,7 C -4,3 C -4,3 C 0,0 C 81 % 88 % 0 % 1009,6 hPa 0,0 l/m 0,8 km/h (0 Bft) NO 45 0 min 0,0 UV-I -7,1 C -4,3 C 0,0 km/h (0 Bft)
07.01.2010 12:00 -4,1 C 1,9 C -4,5 C -4,1 C -4,1 C 0,0 C 81 % 88 % 0 % 1009,6 hPa 0,0 l/m 0,6 km/h (0 Bft) NO 45 0 min 0,0 UV-I -6,9 C -4,1 C 3,2 km/h (1 Bft)
07.01.2010 12:10 -3,9 C 1,9 C -4,3 C -3,8 C -3,8 C 0,1 C 81 % 88 % 3 % 1009,6 hPa 0,0 l/m 0,8 km/h (0 Bft) NO 45 0 min 0,0 UV-I -6,7 C -3,8 C 0,0 km/h (0 Bft)
07.01.2010 12:15 -3,9 C 1,9 C -4,4 C -3,8 C -3,8 C 0,1 C 80 % 87 % 3 % 1009,9 hPa 0,0 l/m 0,8 km/h (0 Bft) NO 45 0 min 0,0 UV-I -6,8 C -3,8 C 0,0 km/h (0 Bft)
07.01.2010 12:20 -3,8 C 1,9 C -4,3 C -3,7 C -3,7 C 0,1 C 80 % 87 % 3 % 1009,9 hPa 0,0 l/m 0,6 km/h (0 Bft) NO 45 0 min 0,0 UV-I -6,7 C -3,7 C 0,0 km/h (0 Bft)
07.01.2010 12:25 -3,7 C 1,9 C -4,1 C -3,7 C -3,7 C 0,0 C 80 % 87 % 0 % 1009,9 hPa 0,0 l/m 0,6 km/h (0 Bft) NO 45 0 min 0,0 UV-I -6,6 C -3,7 C 2,4 km/h (1 Bft)
07.01.2010 12:30 -3,7 C 1,9 C -4,3 C -3,7 C -3,7 C 0,0 C 80 % 87 % 0 % 1009,9 hPa 0,0 l/m 1,1 km/h (1 Bft) NO 45 0 min 0,0 UV-I -6,6 C -3,7 C 0,0 km/h (0 Bft)
07.01.2010 12:35 -3,5 C 1,9 C -4,3 C -3,6 C -3,8 C 0,0 C 80 % 87 % 0 % 1009,9 hPa 0,0 l/m 1,3 km/h (1 Bft) NO 45 0 min 0,0 UV-I -6,4 C -3,8 C 0,0 km/h (0 Bft)
07.01.2010 12:40 -3,7 C 1,9 C -4,1 C -3,7 C -3,7 C 0,0 C 79 % 86 % 0 % 1009,9 hPa 0,0 l/m 0,6 km/h (0 Bft) NO 45 0 min 0,0 UV-I -6,8 C -3,7 C 1,6 km/h (1 Bft)
07.01.2010 12:45 -3,6 C 1,9 C -4,1 C -3,6 C -3,7 C 0,0 C 79 % 86 % 0 % 1009,9 hPa 0,0 l/m 0,5 km/h (0 Bft) NO 45 0 min 0,0 UV-I -6,7 C -3,7 C 0,0 km/h (0 Bft)
07.01.2010 12:50 -3,6 C 1,9 C -3,9 C -3,6 C -3,6 C 0,0 C 79 % 86 % 0 % 1009,9 hPa 0,0 l/m 0,6 km/h (0 Bft) NO 45 0 min 0,0 UV-I -6,7 C -3,6 C 2,3 km/h (1 Bft)
07.01.2010 12:55 -3,5 C 1,9 C -4,0 C -3,5 C -3,5 C 0,0 C 79 % 86 % 0 % 1009,9 hPa 0,0 l/m 0,5 km/h (0 Bft) NO 45 0 min 0,0 UV-I -6,6 C -3,5 C 4,3 km/h (1 Bft)
07.01.2010 13:00 -3,3 C 1,9 C -4,1 C -3,4 C -3,7 C 0,0 C 79 % 86 % 0 % 1009,9 hPa 0,0 l/m 1,0 km/h (0 Bft) NO 45 0 min 0,0 UV-I -6,4 C -3,7 C 0,0 km/h (0 Bft)
07.01.2010 13:10 -3,3 C 1,9 C -4,0 C -3,4 C -3,6 C 0,0 C 79 % 86 % 0 % 1009,9 hPa 0,0 l/m 0,8 km/h (0 Bft) NO 45 0 min 0,0 UV-I -6,4 C -3,6 C 5,5 km/h (1 Bft)
07.01.2010 13:15 -3,3 C 1,9 C -3,9 C -3,4 C -3,7 C 0,0 C 79 % 86 % 0 % 1010,4 hPa 0,0 l/m 1,3 km/h (1 Bft) NO 45 0 min 0,0 UV-I -6,4 C -3,7 C 0,0 km/h (0 Bft)
07.01.2010 13:20 -3,2 C 1,9 C -3,7 C -3,3 C -3,5 C 0,0 C 79 % 86 % 0 % 1010,4 hPa 0,0 l/m 1,3 km/h (1 Bft) NO 45 0 min 0,0 UV-I -6,3 C -3,5 C 0,0 km/h (0 Bft)
07.01.2010 13:25 -3,1 C 1,9 C -3,8 C -3,2 C -3,4 C 0,0 C 78 % 86 % 0 % 1010,4 hPa 0,0 l/m 0,2 km/h (0 Bft) NO 45 0 min 0,0 UV-I -6,4 C -3,4 C 0,0 km/h (0 Bft)
07.01.2010 13:30 -3,1 C 1,9 C -3,7 C -3,2 C -3,3 C 0,0 C 78 % 86 % 0 % 1010,4 hPa 0,0 l/m 0,2 km/h (0 Bft) NO 45 0 min 0,0 UV-I -6,4 C -3,3 C 2,1 km/h (1 Bft)
07.01.2010 13:35 -2,9 C 1,9 C -3,7 C -3,0 C -3,2 C 0,0 C 78 % 86 % 0 % 1010,4 hPa 0,0 l/m 0,6 km/h (0 Bft) NO 45 0 min 0,0 UV-I -6,2 C -3,2 C 1,6 km/h (1 Bft)
07.01.2010 13:40 -2,9 C 1,9 C -3,8 C -3,0 C -3,3 C 0,0 C 78 % 86 % 0 % 1010,4 hPa 0,0 l/m 1,1 km/h (1 Bft) NO 45 0 min 0,0 UV-I -6,2 C -3,3 C 4,2 km/h (1 Bft)
07.01.2010 13:45 -3,2 C 1,9 C -3,7 C -3,3 C -3,5 C 0,0 C 78 % 86 % 0 % 1010,4 hPa 0,0 l/m 1,4 km/h (1 Bft) NO 45 0 min 0,0 UV-I -6,5 C -3,5 C 3,1 km/h (1 Bft)
07.01.2010 13:50 -3,1 C 1,9 C -3,9 C -3,3 C -3,8 C 0,0 C 78 % 86 % 0 % 1010,4 hPa 0,0 l/m 2,1 km/h (1 Bft) NO 45 0 min 0,0 UV-I -6,4 C -3,8 C 0,0 km/h (0 Bft)
07.01.2010 13:55 -3,2 C 1,9 C -3,9 C -3,4 C -3,9 C 0,0 C 78 % 86 % 0 % 1010,4 hPa 0,0 l/m 1,8 km/h (1 Bft) NO 45 0 min 0,0 UV-I -6,5 C -3,9 C 0,0 km/h (0 Bft)
07.01.2010 14:00 -2,9 C 1,9 C -3,7 C -3,2 C -3,8 C 0,0 C 79 % 86 % 0 % 1010,4 hPa 0,0 l/m 1,4 km/h (1 Bft) NO 45 0 min 0,0 UV-I -6,0 C -3,8 C 4,5 km/h (1 Bft)
07.01.2010 14:10 -3,2 C 1,9 C -3,9 C -3,4 C -3,8 C 0,0 C 77 % 84 % 0 % 1010,4 hPa 0,0 l/m 1,3 km/h (1 Bft) NO 45 0 min 0,0 UV-I -6,6 C -3,8 C 1,9 km/h (1 Bft)
07.01.2010 14:15 -3,3 C 1,9 C -3,7 C -3,5 C -3,9 C 0,0 C 77 % 85 % 0 % 1010,2 hPa 0,0 l/m 1,3 km/h (1 Bft) NO 45 0 min 0,0 UV-I -6,7 C -3,9 C 2,1 km/h (1 Bft)
07.01.2010 14:20 -3,2 C 1,9 C -3,7 C -3,5 C -4,0 C 0,0 C 78 % 86 % 0 % 1010,2 hPa 0,0 l/m 1,9 km/h (1 Bft) NO 45 0 min 0,0 UV-I -6,5 C -4,0 C 3,2 km/h (1 Bft)
07.01.2010 14:25 -3,1 C 1,9 C -3,9 C -3,7 C -4,8 C 0,0 C 78 % 86 % 0 % 1010,2 hPa 0,0 l/m 2,7 km/h (1 Bft) NO 45 0 min 0,0 UV-I -6,4 C -4,8 C 2,9 km/h (1 Bft)
07.01.2010 14:30 -3,1 C 1,9 C -4,0 C -3,8 C -5,1 C 0,0 C 78 % 86 % 0 % 1010,2 hPa 0,0 l/m 3,1 km/h (1 Bft) NO 45 0 min 0,0 UV-I -6,4 C -5,1 C 3,1 km/h (1 Bft)
07.01.2010 14:35 -3,3 C 1,9 C -4,1 C -4,1 C -5,6 C 0,0 C 78 % 86 % 0 % 1010,6 hPa 0,0 l/m 3,4 km/h (1 Bft) NO 45 0 min 0,0 UV-I -6,6 C -5,6 C 3,5 km/h (1 Bft)
07.01.2010 14:40 -3,3 C 1,9 C -4,1 C -4,2 C -5,9 C 0,0 C 78 % 86 % 0 % 1010,6 hPa 0,0 l/m 3,7 km/h (1 Bft) NO 45 0 min 0,0 UV-I -6,6 C -5,9 C 4,3 km/h (1 Bft)
07.01.2010 14:45 -3,3 C 1,9 C -4,1 C -4,0 C -5,4 C 0,0 C 78 % 86 % 0 % 1010,6 hPa 0,0 l/m 3,1 km/h (1 Bft) NO 45 0 min 0,0 UV-I -6,6 C -5,4 C 2,4 km/h (1 Bft)
07.01.2010 14:50 -3,3 C 1,9 C -4,1 C -3,8 C -4,9 C 0,0 C 78 % 86 % 0 % 1010,6 hPa 0,0 l/m 2,4 km/h (1 Bft) NO 45 0 min 0,0 UV-I -6,6 C -4,9 C 3,7 km/h (1 Bft)
07.01.2010 14:55 -3,3 C 1,9 C -4,2 C -3,7 C -4,5 C 0,0 C 78 % 86 % 0 % 1010,7 hPa 0,0 l/m 1,6 km/h (1 Bft) NO 45 0 min 0,0 UV-I -6,6 C -4,5 C 0,0 km/h (0 Bft)
07.01.2010 15:00 -3,3 C 1,9 C -4,1 C -3,7 C -4,5 C 0,0 C 78 % 86 % 0 % 1010,7 hPa 0,0 l/m 1,4 km/h (1 Bft) NO 45 0 min 0,0 UV-I -6,6 C -4,5 C 3,7 km/h (1 Bft)
07.01.2010 15:10 -3,3 C 1,9 C -4,1 C -3,7 C -4,6 C 0,0 C 79 % 87 % 0 % 1010,7 hPa 0,0 l/m 1,3 km/h (1 Bft) NO 45 0 min 0,0 UV-I -6,4 C -4,6 C 2,9 km/h (1 Bft)
07.01.2010 15:15 -3,3 C 1,9 C -4,3 C -3,8 C -4,7 C 0,0 C 79 % 86 % 0 % 1011,1 hPa 0,0 l/m 1,0 km/h (0 Bft) NO 45 0 min 0,0 UV-I -6,4 C -4,7 C 0,0 km/h (0 Bft)
07.01.2010 15:20 -3,3 C 1,9 C -4,3 C -3,8 C -4,8 C 0,0 C 79 % 87 % 0 % 1011,1 hPa 0,0 l/m 0,6 km/h (0 Bft) NO 45 0 min 0,0 UV-I -6,4 C -4,8 C 0,0 km/h (0 Bft)
07.01.2010 15:25 -3,4 C 1,9 C -4,3 C -3,9 C -4,9 C 0,0 C 79 % 87 % 0 % 1011,1 hPa 0,0 l/m 0,5 km/h (0 Bft) NO 45 0 min 0,0 UV-I -6,5 C -4,9 C 0,0 km/h (0 Bft)
07.01.2010 15:30 -3,3 C 1,9 C -4,3 C -3,9 C -5,0 C 0,0 C 79 % 87 % 0 % 1011,1 hPa 0,0 l/m 1,0 km/h (0 Bft) NO 45 0 min 0,0 UV-I -6,4 C -5,0 C 2,1 km/h (1 Bft)
07.01.2010 15:35 -3,5 C 1,9 C -4,3 C -4,0 C -5,0 C 0,0 C 79 % 87 % 0 % 1011,0 hPa 0,0 l/m 1,4 km/h (1 Bft) NO 45 0 min 0,0 UV-I -6,6 C -5,0 C 2,6 km/h (1 Bft)
07.01.2010 15:40 -3,5 C 1,9 C -4,3 C -4,0 C -5,0 C 0,0 C 79 % 87 % 0 % 1011,0 hPa 0,0 l/m 1,8 km/h (1 Bft) NO 45 0 min 0,0 UV-I -6,6 C -5,0 C 3,1 km/h (1 Bft)
07.01.2010 15:45 -3,5 C 1,9 C -4,3 C -4,0 C -5,1 C 0,0 C 79 % 87 % 0 % 1011,0 hPa 0,0 l/m 1,4 km/h (1 Bft) NO 45 0 min 0,0 UV-I -6,6 C -5,1 C 0,0 km/h (0 Bft)
07.01.2010 15:50 -3,7 C 1,9 C -4,3 C -4,2 C -5,2 C 0,0 C 78 % 87 % 0 % 1011,0 hPa 0,0 l/m 1,6 km/h (1 Bft) NO 45 0 min 0,0 UV-I -7,0 C -5,2 C 3,5 km/h (1 Bft)
07.01.2010 15:55 -3,7 C 1,9 C -4,3 C -4,3 C -5,4 C 0,0 C 78 % 87 % 0 % 1010,9 hPa 0,0 l/m 1,8 km/h (1 Bft) NO 45 0 min 0,0 UV-I -7,0 C -5,4 C 0,0 km/h (0 Bft)
07.01.2010 16:00 -3,9 C 1,9 C -4,3 C -4,5 C -5,8 C 0,0 C 79 % 87 % 0 % 1010,9 hPa 0,0 l/m 0,8 km/h (0 Bft) NO 45 0 min 0,0 UV-I -7,0 C -5,8 C 0,0 km/h (0 Bft)
07.01.2010 16:10 -4,4 C 2,1 C -5,3 C -5,2 C -6,8 C 0,0 C 79 % 87 % 0 % 1010,9 hPa 0,0 l/m 0,0 km/h (0 Bft) NO 45 0 min 0,0 UV-I -7,5 C -6,8 C 0,0 km/h (0 Bft)
07.01.2010 16:15 -4,6 C 2,1 C -5,3 C -5,5 C -7,3 C 0,0 C 79 % 87 % 0 % 1011,1 hPa 0,0 l/m 0,0 km/h (0 Bft) NO 45 0 min 0,0 UV-I -7,7 C -7,3 C 0,0 km/h (0 Bft)
07.01.2010 16:20 -4,5 C 2,1 C -5,6 C -5,5 C -7,4 C 0,0 C 80 % 87 % 0 % 1011,1 hPa 0,0 l/m 0,0 km/h (0 Bft) NO 45 0 min 0,0 UV-I -7,4 C -7,4 C 0,0 km/h (0 Bft)
07.01.2010 16:25 -4,7 C 2,1 C -5,7 C -5,6 C -7,4 C 0,0 C 81 % 88 % 0 % 1011,1 hPa 0,0 l/m 0,0 km/h (0 Bft) NO 45 0 min 0,0 UV-I -7,4 C -7,4 C 0,0 km/h (0 Bft)
07.01.2010 16:30 -4,9 C 2,1 C -5,7 C -5,7 C -7,3 C 0,0 C 81 % 88 % 0 % 1011,1 hPa 0,0 l/m 0,0 km/h (0 Bft) NO 45 0 min 0,0 UV-I -7,6 C -7,3 C 0,0 km/h (0 Bft)
07.01.2010 16:35 -4,9 C 2,2 C -5,5 C -5,7 C -7,2 C 0,0 C 82 % 88 % 0 % 1011,1 hPa 0,0 l/m 0,0 km/h (0 Bft) NO 45 0 min 0,0 UV-I -7,5 C -7,2 C 0,0 km/h (0 Bft)
07.01.2010 16:40 -4,9 C 2,2 C -5,7 C -5,7 C -7,2 C 0,0 C 82 % 88 % 0 % 1011,1 hPa 0,0 l/m 0,0 km/h (0 Bft) NO 45 0 min 0,0 UV-I -7,5 C -7,2 C 0,0 km/h (0 Bft)
07.01.2010 16:45 -5,1 C 2,1 C -5,9 C -5,8 C -7,2 C 0,0 C 82 % 88 % 0 % 1011,1 hPa 0,0 l/m 0,0 km/h (0 Bft) NO 45 0 min 0,0 UV-I -7,7 C -7,2 C 0,0 km/h (0 Bft)
07.01.2010 16:50 -5,1 C 2,2 C -5,9 C -5,8 C -7,2 C 0,0 C 83 % 89 % 0 % 1011,1 hPa 0,0 l/m 0,0 km/h (0 Bft) NO 45 0 min 0,0 UV-I -7,5 C -7,2 C 0,0 km/h (0 Bft)
07.01.2010 16:55 -5,2 C 2,2 C -5,9 C -5,9 C -7,2 C 0,0 C 83 % 89 % 0 % 1011,6 hPa 0,0 l/m 0,0 km/h (0 Bft) NO 45 0 min 0,0 UV-I -7,6 C -7,2 C 0,0 km/h (0 Bft)
07.01.2010 17:00 -5,3 C 2,1 C -5,9 C -5,9 C -7,2 C 0,0 C 82 % 89 % 0 % 1011,6 hPa 0,0 l/m 0,0 km/h (0 Bft) NO 45 0 min 0,0 UV-I -7,9 C -7,2 C 0,0 km/h (0 Bft)
07.01.2010 17:10 -5,5 C 2,1 C -6,0 C -6,1 C -7,3 C 0,0 C 83 % 90 % 0 % 1011,6 hPa 0,0 l/m 0,0 km/h (0 Bft) NO 45 0 min 0,0 UV-I -7,9 C -7,3 C 0,0 km/h (0 Bft)
07.01.2010 17:15 -5,3 C 2,1 C -6,1 C -6,0 C -7,4 C 0,0 C 83 % 89 % 0 % 1011,6 hPa 0,0 l/m 0,0 km/h (0 Bft) NO 45 0 min 0,0 UV-I -7,7 C -7,4 C 0,0 km/h (0 Bft)
07.01.2010 17:20 -5,6 C 2,1 C -6,1 C -6,2 C -7,5 C 0,0 C 82 % 89 % 0 % 1011,6 hPa 0,0 l/m 0,0 km/h (0 Bft) NO 45 0 min 0,0 UV-I -8,2 C -7,5 C 0,0 km/h (0 Bft)
07.01.2010 17:25 -5,7 C 2,1 C -6,4 C -6,3 C -7,6 C 0,0 C 83 % 89 % 0 % 1011,6 hPa 0,0 l/m 0,0 km/h (0 Bft) NO 45 0 min 0,0 UV-I -8,1 C -7,6 C 0,0 km/h (0 Bft)
07.01.2010 17:30 -5,7 C 2,1 C -6,4 C -6,4 C -7,7 C 0,0 C 83 % 89 % 0 % 1011,6 hPa 0,0 l/m 0,0 km/h (0 Bft) NO 45 0 min 0,0 UV-I -8,1 C -7,7 C 0,0 km/h (0 Bft)
07.01.2010 17:35 -5,7 C 2,1 C -6,5 C -6,5 C -8,1 C 0,0 C 83 % 89 % 0 % 1011,6 hPa 0,0 l/m 0,0 km/h (0 Bft) NO 45 0 min 0,0 UV-I -8,1 C -8,1 C 0,0 km/h (0 Bft)
07.01.2010 17:40 -6,0 C 2,2 C -6,7 C -6,8 C -8,3 C 0,0 C 83 % 89 % 0 % 1011,6 hPa 0,0 l/m 0,0 km/h (0 Bft) NO 45 0 min 0,0 UV-I -8,4 C -8,3 C 0,0 km/h (0 Bft)
07.01.2010 17:45 -6,1 C 2,1 C -6,9 C -7,0 C -8,8 C 0,0 C 83 % 89 % 0 % 1011,6 hPa 0,0 l/m 0,0 km/h (0 Bft) NO 45 0 min 0,0 UV-I -8,5 C -8,8 C 0,0 km/h (0 Bft)
07.01.2010 17:50 -6,3 C 2,2 C -7,1 C -7,2 C -9,0 C 0,0 C 82 % 89 % 0 % 1011,6 hPa 0,0 l/m 0,0 km/h (0 Bft) NO 45 0 min 0,0 UV-I -8,9 C -9,0 C 0,0 km/h (0 Bft)
07.01.2010 17:55 -6,5 C 2,2 C -7,3 C -7,4 C -9,3 C 0,0 C 82 % 89 % 0 % 1012,2 hPa 0,0 l/m 0,0 km/h (0 Bft) NO 45 0 min 0,0 UV-I -9,0 C -9,3 C 0,0 km/h (0 Bft)
07.01.2010 18:00 -6,5 C 2,2 C -7,5 C -7,5 C -9,4 C 0,0 C 83 % 89 % 0 % 1012,2 hPa 0,0 l/m 0,0 km/h (0 Bft) NO 45 0 min 0,0 UV-I -8,9 C -9,4 C 0,0 km/h (0 Bft)
07.01.2010 18:10 -7,1 C 2,1 C -8,0 C -8,0 C -9,8 C 0,0 C 82 % 88 % 0 % 1012,2 hPa 0,0 l/m 0,0 km/h (0 Bft) NO 45 0 min 0,0 UV-I -9,6 C -9,8 C 0,0 km/h (0 Bft)
07.01.2010 18:15 -7,1 C 2,1 C -8,1 C -8,1 C -10,0 C 0,0 C 82 % 88 % 0 % 1012,2 hPa 0,0 l/m 0,0 km/h (0 Bft) NO 45 0 min 0,0 UV-I -9,6 C -10,0 C 0,0 km/h (0 Bft)
07.01.2010 18:20 -7,3 C 2,1 C -8,5 C -8,3 C -10,2 C 0,0 C 82 % 88 % 0 % 1012,2 hPa 0,0 l/m 0,0 km/h (0 Bft) NO 45 0 min 0,0 UV-I -9,8 C -10,2 C 0,0 km/h (0 Bft)
07.01.2010 18:25 -7,5 C 2,1 C -8,7 C -8,5 C -10,4 C 0,0 C 82 % 89 % 0 % 1012,2 hPa 0,0 l/m 0,0 km/h (0 Bft) NO 45 0 min 0,0 UV-I -10,0 C -10,4 C 0,0 km/h (0 Bft)
07.01.2010 18:30 -7,6 C 2,1 C -8,8 C -8,6 C -10,5 C 0,0 C 83 % 89 % 0 % 1012,2 hPa 0,0 l/m 0,0 km/h (0 Bft) NO 45 0 min 0,0 UV-I -10,0 C -10,5 C 0,0 km/h (0 Bft)
07.01.2010 18:35 -7,7 C 2,1 C -8,9 C -8,7 C -10,6 C 0,0 C 82 % 89 % 0 % 1012,9 hPa 0,0 l/m 0,0 km/h (0 Bft) NO 45 0 min 0,0 UV-I -10,2 C -10,6 C 0,0 km/h (0 Bft)
07.01.2010 18:40 -8,0 C 2,1 C -8,9 C -8,9 C -10,7 C 0,0 C 82 % 89 % 0 % 1012,9 hPa 0,0 l/m 0,0 km/h (0 Bft) NO 45 0 min 0,0 UV-I -10,5 C -10,7 C 0,0 km/h (0 Bft)
07.01.2010 18:45 -7,9 C 2,1 C -8,9 C -9,0 C -11,2 C 0,0 C 83 % 89 % 0 % 1012,9 hPa 0,0 l/m 0,0 km/h (0 Bft) NO 45 0 min 0,0 UV-I -10,3 C -11,2 C 0,0 km/h (0 Bft)
07.01.2010 18:50 -7,9 C 2,2 C -9,0 C -9,1 C -11,6 C 0,0 C 83 % 89 % 0 % 1012,9 hPa 0,0 l/m 0,0 km/h (0 Bft) NO 45 0 min 0,0 UV-I -10,3 C -11,6 C 0,0 km/h (0 Bft)
07.01.2010 18:55 -8,0 C 2,2 C -9,1 C -9,2 C -11,7 C 0,0 C 83 % 89 % 0 % 1013,4 hPa 0,0 l/m 0,0 km/h (0 Bft) NO 45 0 min 0,0 UV-I -10,4 C -11,7 C 0,0 km/h (0 Bft)
07.01.2010 19:00 -8,1 C 2,0 C -9,3 C -9,3 C -11,8 C 0,0 C 81 % 88 % 0 % 1013,4 hPa 0,0 l/m 0,0 km/h (0 Bft) NO 45 0 min 0,0 UV-I -10,8 C -11,8 C 0,0 km/h (0 Bft)
07.01.2010 19:10 -8,1 C 2,2 C -9,5 C -9,4 C -11,9 C 0,0 C 82 % 89 % 0 % 1013,4 hPa 0,0 l/m 0,0 km/h (0 Bft) NO 45 0 min 0,0 UV-I -10,6 C -11,9 C 0,0 km/h (0 Bft)
07.01.2010 19:15 -8,3 C 2,2 C -9,6 C -9,5 C -11,9 C 0,0 C 82 % 89 % 0 % 1013,9 hPa 0,0 l/m 0,0 km/h (0 Bft) NO 45 0 min 0,0 UV-I -10,8 C -11,9 C 0,0 km/h (0 Bft)
07.01.2010 19:20 -8,3 C 2,0 C -9,7 C -9,5 C -12,0 C 0,0 C 81 % 89 % 0 % 1013,9 hPa 0,0 l/m 0,0 km/h (0 Bft) NO 45 0 min 0,0 UV-I -11,0 C -12,0 C 0,0 km/h (0 Bft)
07.01.2010 19:25 -8,5 C 2,0 C -9,7 C -9,8 C -12,3 C 0,0 C 82 % 89 % 0 % 1013,9 hPa 0,0 l/m 0,0 km/h (0 Bft) NO 45 0 min 0,0 UV-I -11,0 C -12,3 C 0,0 km/h (0 Bft)
07.01.2010 19:30 -8,5 C 2,0 C -9,7 C -9,8 C -12,3 C 0,0 C 82 % 89 % 0 % 1013,9 hPa 0,0 l/m 0,0 km/h (0 Bft) NO 45 0 min 0,0 UV-I -11,0 C -12,3 C 0,0 km/h (0 Bft)
07.01.2010 19:35 -8,5 C 2,0 C -9,7 C -9,8 C -12,3 C 0,0 C 82 % 89 % 0 % 1014,1 hPa 0,0 l/m 0,0 km/h (0 Bft) NO 45 0 min 0,0 UV-I -11,0 C -12,3 C 0,0 km/h (0 Bft)
07.01.2010 19:40 -8,7 C 2,0 C -9,9 C -9,9 C -12,4 C 0,0 C 81 % 89 % 0 % 1014,1 hPa 0,0 l/m 0,0 km/h (0 Bft) NO 45 0 min 0,0 UV-I -11,4 C -12,4 C 0,0 km/h (0 Bft)
07.01.2010 19:45 -8,9 C 2,0 C -10,1 C -10,1 C -12,4 C 0,0 C 82 % 89 % 0 % 1014,1 hPa 0,0 l/m 0,0 km/h (0 Bft) NO 45 0 min 0,0 UV-I -11,4 C -12,4 C 0,0 km/h (0 Bft)
07.01.2010 19:50 -9,1 C 2,0 C -10,3 C -10,2 C -12,4 C 0,0 C 81 % 88 % 0 % 1014,1 hPa 0,0 l/m 0,0 km/h (0 Bft) NO 45 0 min 0,0 UV-I -11,7 C -12,4 C 0,0 km/h (0 Bft)
07.01.2010 19:55 -9,3 C 2,1 C -10,5 C -10,4 C -12,5 C 0,0 C 81 % 88 % 0 % 1014,3 hPa 0,0 l/m 0,0 km/h (0 Bft) NO 45 0 min 0,0 UV-I -11,9 C -12,5 C 0,0 km/h (0 Bft)
07.01.2010 20:00 -9,3 C 2,1 C -10,5 C -10,4 C -12,7 C 0,0 C 82 % 88 % 0 % 1014,3 hPa 0,0 l/m 0,0 km/h (0 Bft) NO 45 0 min 0,0 UV-I -11,8 C -12,7 C 0,0 km/h (0 Bft)
07.01.2010 20:10 -9,6 C 1,9 C -10,7 C -10,7 C -12,9 C 0,0 C 81 % 88 % 0 % 1014,3 hPa 0,0 l/m 0,0 km/h (0 Bft) NO 45 0 min 0,0 UV-I -12,2 C -12,9 C 0,0 km/h (0 Bft)
07.01.2010 20:15 -9,7 C 2,1 C -10,9 C -10,8 C -13,0 C 0,0 C 81 % 88 % 0 % 1014,8 hPa 0,0 l/m 0,0 km/h (0 Bft) NO 45 0 min 0,0 UV-I -12,3 C -13,0 C 0,0 km/h (0 Bft)
07.01.2010 20:20 -9,9 C 2,1 C -10,9 C -10,9 C -13,0 C 0,0 C 81 % 88 % 0 % 1014,8 hPa 0,0 l/m 0,0 km/h (0 Bft) NO 45 0 min 0,0 UV-I -12,5 C -13,0 C 0,0 km/h (0 Bft)
07.01.2010 20:25 -10,1 C 2,1 C -10,9 C -11,1 C -13,2 C 0,0 C 82 % 89 % 0 % 1014,8 hPa 0,0 l/m 0,0 km/h (0 Bft) NO 45 0 min 0,0 UV-I -12,6 C -13,2 C 0,0 km/h (0 Bft)
07.01.2010 20:30 -10,1 C 2,1 C -10,9 C -11,2 C -13,5 C 0,0 C 82 % 89 % 0 % 1014,8 hPa 0,0 l/m 0,0 km/h (0 Bft) NO 45 0 min 0,0 UV-I -12,6 C -13,5 C 0,0 km/h (0 Bft)
07.01.2010 20:35 -10,1 C 1,9 C -10,9 C -11,3 C -13,7 C 0,0 C 82 % 89 % 0 % 1014,6 hPa 0,0 l/m 0,0 km/h (0 Bft) NO 45 0 min 0,0 UV-I -12,6 C -13,7 C 0,0 km/h (0 Bft)
07.01.2010 20:40 -10,3 C 1,9 C -11,1 C -11,4 C -13,7 C 0,0 C 82 % 89 % 0 % 1014,6 hPa 0,0 l/m 0,0 km/h (0 Bft) NO 45 0 min 0,0 UV-I -12,8 C -13,7 C 0,0 km/h (0 Bft)
07.01.2010 20:45 -10,1 C 1,9 C -11,1 C -11,4 C -13,9 C 0,0 C 82 % 89 % 0 % 1014,6 hPa 0,0 l/m 0,0 km/h (0 Bft) NO 45 0 min 0,0 UV-I -12,6 C -13,9 C 0,0 km/h (0 Bft)
07.01.2010 20:50 -10,1 C 1,9 C -11,2 C -11,4 C -14,0 C 0,0 C 82 % 89 % 0 % 1014,6 hPa 0,0 l/m 0,0 km/h (0 Bft) NO 45 0 min 0,0 UV-I -12,6 C -14,0 C 0,0 km/h (0 Bft)
07.01.2010 20:55 -10,2 C 1,9 C -11,3 C -11,5 C -14,0 C 0,0 C 82 % 89 % 0 % 1015,4 hPa 0,0 l/m 0,0 km/h (0 Bft) NO 45 0 min 0,0 UV-I -12,7 C -14,0 C 0,0 km/h (0 Bft)
07.01.2010 21:00 -10,7 C 1,9 C -11,7 C -11,8 C -14,0 C 0,0 C 81 % 88 % 0 % 1015,4 hPa 0,0 l/m 0,0 km/h (0 Bft) NO 45 0 min 0,0 UV-I -13,3 C -14,0 C 0,0 km/h (0 Bft)
07.01.2010 21:05 -10,9 C 2,0 C -11,7 C -11,9 C -14,0 C 0,0 C 81 % 88 % 0 % 1015,4 hPa 0,0 l/m 0,0 km/h (0 Bft) NO 45 0 min 0,0 UV-I -13,5 C -14,0 C 0,0 km/h (0 Bft)
07.01.2010 21:10 -10,9 C 2,0 C -11,7 C -11,9 C -14,0 C 0,0 C 82 % 89 % 0 % 1015,4 hPa 0,0 l/m 0,0 km/h (0 Bft) NO 45 0 min 0,0 UV-I -13,4 C -14,0 C 0,0 km/h (0 Bft)
07.01.2010 21:15 -10,7 C 2,0 C -11,7 C -11,8 C -14,1 C 0,0 C 82 % 89 % 0 % 1015,1 hPa 0,0 l/m 0,0 km/h (0 Bft) NO 45 0 min 0,0 UV-I -13,2 C -14,1 C 0,0 km/h (0 Bft)
07.01.2010 21:20 -10,7 C 2,0 C -11,7 C -11,9 C -14,2 C 0,0 C 81 % 88 % 0 % 1015,1 hPa 0,0 l/m 0,0 km/h (0 Bft) NO 45 0 min 0,0 UV-I -13,3 C -14,2 C 0,0 km/h (0 Bft)
07.01.2010 21:25 -10,9 C 2,0 C -11,7 C -12,1 C -14,5 C 0,0 C 81 % 88 % 0 % 1015,1 hPa 0,0 l/m 0,0 km/h (0 Bft) NO 45 0 min 0,0 UV-I -13,5 C -14,5 C 0,0 km/h (0 Bft)
07.01.2010 21:30 -10,8 C 2,0 C -11,9 C -12,1 C -14,6 C 0,0 C 82 % 88 % 0 % 1015,1 hPa 0,0 l/m 0,0 km/h (0 Bft) NO 45 0 min 0,0 UV-I -13,3 C -14,6 C 0,0 km/h (0 Bft)
07.01.2010 21:35 -10,8 C 2,0 C -11,9 C -12,1 C -14,8 C 0,0 C 81 % 88 % 0 % 1015,2 hPa 0,0 l/m 0,0 km/h (0 Bft) NO 45 0 min 0,0 UV-I -13,4 C -14,8 C 0,0 km/h (0 Bft)
07.01.2010 21:40 -10,7 C 2,0 C -11,9 C -12,1 C -15,0 C 0,0 C 81 % 88 % 0 % 1015,2 hPa 0,0 l/m 0,0 km/h (0 Bft) NO 45 0 min 0,0 UV-I -13,3 C -15,0 C 0,0 km/h (0 Bft)
07.01.2010 21:45 -10,8 C 2,0 C -11,9 C -12,2 C -15,0 C 0,0 C 81 % 89 % 0 % 1015,2 hPa 0,0 l/m 0,0 km/h (0 Bft) NO 45 0 min 0,0 UV-I -13,4 C -15,0 C 0,0 km/h (0 Bft)
07.01.2010 21:50 -10,9 C 1,9 C -11,9 C -12,3 C -15,1 C 0,0 C 81 % 89 % 0 % 1015,2 hPa 0,0 l/m 0,0 km/h (0 Bft) NO 45 0 min 0,0 UV-I -13,5 C -15,1 C 0,0 km/h (0 Bft)
07.01.2010 21:55 -10,9 C 1,9 C -12,0 C -12,3 C -15,1 C 0,0 C 80 % 88 % 0 % 1015,1 hPa 0,0 l/m 0,0 km/h (0 Bft) NO 45 0 min 0,0 UV-I -13,7 C -15,1 C 0,0 km/h (0 Bft)
07.01.2010 22:00 -11,2 C 1,9 C -12,3 C -12,5 C -15,1 C 0,0 C 80 % 88 % 0 % 1015,1 hPa 0,0 l/m 0,0 km/h (0 Bft) NO 45 0 min 0,0 UV-I -13,9 C -15,1 C 0,0 km/h (0 Bft)
07.01.2010 22:05 -11,5 C 1,9 C -12,4 C -12,7 C -15,0 C 0,0 C 80 % 88 % 0 % 1015,1 hPa 0,0 l/m 0,0 km/h (0 Bft) NO 45 0 min 0,0 UV-I -14,2 C -15,0 C 0,0 km/h (0 Bft)
07.01.2010 22:10 -11,5 C 1,9 C -12,4 C -12,7 C -15,0 C 0,0 C 81 % 88 % 0 % 1015,1 hPa 0,0 l/m 0,0 km/h (0 Bft) NO 45 0 min 0,0 UV-I -14,1 C -15,0 C 0,0 km/h (0 Bft)
07.01.2010 22:15 -11,3 C 1,9 C -12,5 C -12,6 C -15,1 C 0,0 C 81 % 88 % 0 % 1015,2 hPa 0,0 l/m 0,0 km/h (0 Bft) NO 45 0 min 0,0 UV-I -13,9 C -15,1 C 0,0 km/h (0 Bft)
07.01.2010 22:20 -11,3 C 1,9 C -12,5 C -12,6 C -15,3 C 0,0 C 81 % 88 % 0 % 1015,2 hPa 0,0 l/m 0,0 km/h (0 Bft) NO 45 0 min 0,0 UV-I -13,9 C -15,3 C 0,0 km/h (0 Bft)
07.01.2010 22:25 -11,3 C 1,9 C -12,5 C -12,6 C -15,3 C 0,0 C 80 % 88 % 0 % 1015,2 hPa 0,0 l/m 0,0 km/h (0 Bft) NO 45 0 min 0,0 UV-I -14,0 C -15,3 C 0,0 km/h (0 Bft)
07.01.2010 22:30 -11,5 C 1,9 C -12,5 C -12,8 C -15,3 C 0,0 C 80 % 88 % 0 % 1015,2 hPa 0,0 l/m 0,0 km/h (0 Bft) NO 45 0 min 0,0 UV-I -14,2 C -15,3 C 0,0 km/h (0 Bft)
07.01.2010 22:35 -11,6 C 1,9 C -12,5 C -12,9 C -15,5 C 0,0 C 81 % 88 % 0 % 1015,1 hPa 0,0 l/m 0,0 km/h (0 Bft) NO 45 0 min 0,0 UV-I -14,2 C -15,5 C 0,0 km/h (0 Bft)
07.01.2010 22:40 -11,9 C 1,9 C -12,9 C -13,0 C -15,3 C 0,0 C 80 % 87 % 0 % 1015,1 hPa 0,0 l/m 0,0 km/h (0 Bft) NO 45 0 min 0,0 UV-I -14,6 C -15,3 C 0,0 km/h (0 Bft)
07.01.2010 22:45 -11,7 C 1,9 C -12,9 C -12,8 C -15,1 C 0,0 C 82 % 88 % 0 % 1015,1 hPa 0,0 l/m 0,0 km/h (0 Bft) NO 45 0 min 0,0 UV-I -14,1 C -15,1 C 0,0 km/h (0 Bft)
07.01.2010 22:50 -11,6 C 1,9 C -12,7 C -12,8 C -15,1 C 0,0 C 82 % 88 % 0 % 1015,1 hPa 0,0 l/m 0,0 km/h (0 Bft) NO 45 0 min 0,0 UV-I -14,0 C -15,1 C 0,0 km/h (0 Bft)
07.01.2010 22:55 -11,5 C 1,9 C -12,7 C -12,7 C -15,1 C 0,0 C 82 % 88 % 0 % 1015,9 hPa 0,0 l/m 0,0 km/h (0 Bft) NO 45 0 min 0,0 UV-I -13,9 C -15,1 C 0,0 km/h (0 Bft)
07.01.2010 23:00 -11,7 C 1,9 C -12,7 C -12,8 C -15,1 C 0,0 C 81 % 88 % 0 % 1015,9 hPa 0,0 l/m 0,0 km/h (0 Bft) NO 45 0 min 0,0 UV-I -14,3 C -15,1 C 0,0 km/h (0 Bft)
07.01.2010 23:10 -11,7 C 1,9 C -12,9 C -13,0 C -15,5 C 0,0 C 80 % 88 % 0 % 1015,9 hPa 0,0 l/m 0,0 km/h (0 Bft) NO 45 0 min 0,0 UV-I -14,4 C -15,5 C 0,0 km/h (0 Bft)
07.01.2010 23:15 -11,9 C 1,9 C -12,9 C -13,3 C -16,1 C 0,0 C 81 % 88 % 0 % 1015,6 hPa 0,0 l/m 0,0 km/h (0 Bft) NO 45 0 min 0,0 UV-I -14,5 C -16,1 C 0,0 km/h (0 Bft)
07.01.2010 23:20 -12,1 C 1,9 C -12,9 C -13,4 C -16,1 C 0,0 C 80 % 88 % 0 % 1015,6 hPa 0,0 l/m 0,0 km/h (0 Bft) NO 45 0 min 0,0 UV-I -14,8 C -16,1 C 0,0 km/h (0 Bft)
07.01.2010 23:25 -12,1 C 1,9 C -13,1 C -13,5 C -16,3 C 0,0 C 80 % 88 % 0 % 1015,6 hPa 0,0 l/m 0,0 km/h (0 Bft) NO 45 0 min 0,0 UV-I -14,8 C -16,3 C 0,0 km/h (0 Bft)
07.01.2010 23:30 -12,1 C 1,9 C -13,1 C -13,5 C -16,3 C 0,0 C 81 % 88 % 0 % 1015,6 hPa 0,0 l/m 0,0 km/h (0 Bft) NO 45 0 min 0,0 UV-I -14,7 C -16,3 C 0,0 km/h (0 Bft)
07.01.2010 23:35 -11,9 C 1,9 C -13,3 C -13,4 C -16,5 C 0,0 C 81 % 88 % 0 % 1016,0 hPa 0,0 l/m 0,0 km/h (0 Bft) NO 45 0 min 0,0 UV-I -14,5 C -16,5 C 0,0 km/h (0 Bft)
07.01.2010 23:40 -12,1 C 1,9 C -13,3 C -13,6 C -16,7 C 0,0 C 80 % 88 % 0 % 1016,0 hPa 0,0 l/m 0,0 km/h (0 Bft) NO 45 0 min 0,0 UV-I -14,8 C -16,7 C 0,0 km/h (0 Bft)
07.01.2010 23:45 -12,1 C 1,9 C -13,3 C -13,6 C -16,7 C 0,0 C 81 % 88 % 0 % 1016,0 hPa 0,0 l/m 0,0 km/h (0 Bft) NO 45 0 min 0,0 UV-I -14,7 C -16,7 C 0,0 km/h (0 Bft)
07.01.2010 23:50 -12,1 C 1,9 C -13,3 C -13,7 C -16,8 C 0,0 C 80 % 88 % 0 % 1016,0 hPa 0,0 l/m 0,0 km/h (0 Bft) NO 45 0 min 0,0 UV-I -14,8 C -16,8 C 0,0 km/h (0 Bft)
07.01.2010 23:55 -12,1 C 1,9 C -13,3 C -13,7 C -16,8 C 0,0 C 80 % 88 % 0 % 1016,0 hPa 0,0 l/m 0,0 km/h (0 Bft) NO 45 0 min 0,0 UV-I -14,8 C -16,8 C 0,0 km/h (0 Bft)
_ Min-Zeit 23:20 10:50 23:35 23:50 23:50 00:00 14:10 14:10 00:00 00:55 - 06:25 - - - 00:00 23:20 23:50 03:15
Minimum _ -12,1 C 1,8 C -13,3 C -13,7 C -16,8 C 0,0 C 77 % 84 % 0 % 1005,4 hPa - 0,0 km/h (0 Bft) - - - 0,0 UV-I -14,8 C -16,8 C 0,0 km/h (0 Bft)
_ Max-Zeit 13:35 16:35 13:20 13:35 13:35 12:10 00:00 00:00 12:10 23:35 00:00 02:20 - - 00:00 00:00 14:00 13:35 02:15
Maximum _ -2,9 C 2,2 C -3,7 C -3,0 C -3,2 C 0,1 C 84 % 92 % 3 % 1016,0 hPa 0,0 l/m 6,6 km/h
NO (2 Bft)
- - 0 min 0,0 UV-I -6,0 C -3,2 C 11,9 km/h
NO (2 Bft)
Durchschnitt _ -6,7 C 2,0 C -7,4 C -7,5 C -9,0 C 0,0 C 82 % 89 % 0 % 1010,1 hPa #0,0 l/m 1,1 km/h (1 Bft) NO - #0 min. 0,0 UV-I -9,3 C -9,1 C 1,6 km/h (1 Bft)
2013 www.wetterstation-wechselburg.de